• In Österreich
  • Länderverzeichnis
  • Für 7 Tage
  • Wassertemperatur
  • Satellitenkarten
  • Wetterkarte
  • News
  • Widgets
  • user-avatar
    Anmelden

    Stündliche Wetter Auxerre

    Heute, 19 November, Sonntag

    Zeit Temperatur Niederschläge Wind Luftdruck Luftfeuchtigkeit
    00:00 +3°C° 0 mm 4 m/S 754 mmHg 90%
    01:00 +3°C° 0 mm 4 m/S 754 mmHg 91%
    02:00 +2°C° 0 mm 5 m/S 754 mmHg 92%
    03:00 +2°C° 0 mm 5 m/S 754 mmHg 93%
    04:00 +3°C° 0,1 mm 5 m/S 754 mmHg 93%
    05:00 +4°C° 0,1 mm 4 m/S 754 mmHg 93%
    06:00 +4°C° 0,1 mm 4 m/S 754 mmHg 94%
    07:00 +5°C° 0,1 mm 4 m/S 754 mmHg 93%
    08:00 +5°C° 0,1 mm 3 m/S 755 mmHg 93%
    09:00 +5°C° 0,1 mm 3 m/S 755 mmHg 93%
    10:00 +7°C° 0 mm 3 m/S 755 mmHg 88%
    11:00 +8°C° 0 mm 2 m/S 755 mmHg 84%
    12:00 +8°C° 0 mm 2 m/S 755 mmHg 79%
    13:00 +8°C° 0 mm 2 m/S 755 mmHg 79%
    14:00 +8°C° 0 mm 2 m/S 755 mmHg 78%
    15:00 +9°C° 0 mm 1 m/S 755 mmHg 77%
    16:00 +8°C° 0 mm 1 m/S 756 mmHg 79%
    17:00 +7°C° 0 mm 1 m/S 756 mmHg 82%
    18:00 +5°C° 0 mm 0 m/S 756 mmHg 84%
    19:00 +5°C° 0 mm 0 m/S 756 mmHg 85%
    20:00 +4°C° 0 mm 0 m/S 756 mmHg 86%
    21:00 +4°C° 0 mm 0 m/S 757 mmHg 87%
    22:00 +5°C° 0 mm 1 m/S 757 mmHg 88%
    23:00 +4°C° 0 mm 1 m/S 757 mmHg 89%

    Morgen, 20 November, Montag

    Zeit Temperatur Niederschläge Wind Luftdruck Luftfeuchtigkeit
    00:00 +4°C° 0 mm 1 m/S 757 mmHg 90%
    01:00 +4°C° 0 mm 1 m/S 756 mmHg 91%
    02:00 +4°C° 0 mm 1 m/S 756 mmHg 92%
    03:00 +4°C° 0 mm 1 m/S 756 mmHg 94%
    04:00 +3°C° 0 mm 2 m/S 756 mmHg 94%
    05:00 +3°C° 0 mm 2 m/S 756 mmHg 95%
    06:00 +3°C° 0 mm 2 m/S 756 mmHg 95%
    07:00 +4°C° 0 mm 2 m/S 756 mmHg 93%
    08:00 +3°C° 0 mm 3 m/S 756 mmHg 91%
    09:00 +4°C° 0 mm 3 m/S 756 mmHg 90%
    10:00 +5°C° 0 mm 3 m/S 756 mmHg 87%
    11:00 +6°C° 0 mm 4 m/S 756 mmHg 85%
    12:00 +7°C° 0 mm 4 m/S 755 mmHg 83%
    13:00 +7°C° 0 mm 4 m/S 755 mmHg 84%
    14:00 +7°C° 0 mm 4 m/S 754 mmHg 86%
    15:00 +7°C° 0 mm 4 m/S 754 mmHg 87%
    16:00 +7°C° 0 mm 4 m/S 754 mmHg 89%
    17:00 +7°C° 0 mm 4 m/S 754 mmHg 91%
    18:00 +7°C° 0 mm 4 m/S 754 mmHg 92%
    19:00 +7°C° 0 mm 4 m/S 754 mmHg 93%
    20:00 +6°C° 0 mm 4 m/S 753 mmHg 93%
    21:00 +6°C° 0 mm 4 m/S 753 mmHg 93%
    22:00 +6°C° 0 mm 4 m/S 753 mmHg 94%
    23:00 +6°C° 0 mm 4 m/S 753 mmHg 94%

    übermorgen, 21 November, Dienstag

    Zeit Temperatur Niederschläge Wind Luftdruck Luftfeuchtigkeit
    00:00 +7°C° 0 mm 3 m/S 753 mmHg 95%
    01:00 +5°C° 0 mm 3 m/S 753 mmHg 95%
    02:00 +5°C° 0 mm 3 m/S 753 mmHg 96%
    03:00 +5°C° 0 mm 3 m/S 753 mmHg 96%
    04:00 +4°C° 0 mm 3 m/S 753 mmHg 96%
    05:00 +4°C° 0 mm 3 m/S 753 mmHg 96%
    06:00 +4°C° 0 mm 3 m/S 752 mmHg 96%
    07:00 +5°C° 0 mm 3 m/S 753 mmHg 93%
    08:00 +6°C° 0 mm 4 m/S 753 mmHg 90%
    09:00 +6°C° 0 mm 4 m/S 753 mmHg 87%
    10:00 +8°C° 0 mm 4 m/S 752 mmHg 82%
    11:00 +10°C° 0 mm 4 m/S 752 mmHg 77%
    12:00 +12°C° 0 mm 4 m/S 752 mmHg 73%
    13:00 +12°C° 0 mm 4 m/S 752 mmHg 74%
    14:00 +11°C° 0 mm 3 m/S 751 mmHg 75%
    15:00 +11°C° 0 mm 3 m/S 751 mmHg 76%
    16:00 +10°C° 0 mm 3 m/S 751 mmHg 80%
    17:00 +9°C° 0 mm 3 m/S 751 mmHg 85%
    18:00 +8°C° 0 mm 3 m/S 750 mmHg 89%
    19:00 +7°C° 0 mm 3 m/S 750 mmHg 90%
    20:00 +7°C° 0 mm 3 m/S 750 mmHg 90%
    21:00 +7°C° 0 mm 3 m/S 750 mmHg 90%
    22:00 +7°C° 0 mm 3 m/S 750 mmHg 90%
    23:00 +7°C° 0 mm 3 m/S 750 mmHg 91%

    22 November, Mittwoch

    Zeit Temperatur Niederschläge Wind Luftdruck Luftfeuchtigkeit
    00:00 +5°C° 0 mm 3 m/S 750 mmHg 91%
    01:00 +5°C° 0 mm 3 m/S 750 mmHg 91%
    02:00 +5°C° 0 mm 3 m/S 749 mmHg 91%
    03:00 +5°C° 0 mm 3 m/S 749 mmHg 91%
    04:00 +4°C° 0 mm 3 m/S 749 mmHg 90%
    05:00 +4°C° 0 mm 3 m/S 749 mmHg 89%
    06:00 +4°C° 0 mm 3 m/S 749 mmHg 88%
    07:00 +5°C° 0 mm 3 m/S 749 mmHg 82%
    08:00 +7°C° 0 mm 3 m/S 749 mmHg 76%
    09:00 +7°C° 0 mm 4 m/S 749 mmHg 70%
    10:00 +10°C° 0 mm 4 m/S 748 mmHg 65%
    11:00 +12°C° 0 mm 4 m/S 748 mmHg 59%
    12:00 +13°C° 0 mm 4 m/S 747 mmHg 54%
    13:00 +13°C° 0 mm 4 m/S 747 mmHg 57%
    14:00 +13°C° 0 mm 3 m/S 746 mmHg 59%
    15:00 +12°C° 0 mm 3 m/S 746 mmHg 62%
    16:00 +11°C° 0 mm 3 m/S 746 mmHg 64%
    17:00 +9°C° 0 mm 3 m/S 746 mmHg 67%
    18:00 +8°C° 0 mm 3 m/S 746 mmHg 69%
    19:00 +7°C° 0 mm 4 m/S 745 mmHg 69%
    20:00 +7°C° 0 mm 4 m/S 745 mmHg 69%
    21:00 +7°C° 0 mm 4 m/S 745 mmHg 68%
    22:00 +7°C° 0 mm 4 m/S 745 mmHg 70%
    23:00 +7°C° 0 mm 5 m/S 745 mmHg 71%

    23 November, Donnerstag

    Zeit Temperatur Niederschläge Wind Luftdruck Luftfeuchtigkeit
    00:00 +7°C° 0 mm 5 m/S 744 mmHg 72%
    01:00 +8°C° 0 mm 6 m/S 744 mmHg 73%
    02:00 +8°C° 0 mm 6 m/S 744 mmHg 74%
    03:00 +9°C° 0 mm 6 m/S 744 mmHg 74%
    04:00 +9°C° 0 mm 6 m/S 744 mmHg 73%
    05:00 +9°C° 0 mm 6 m/S 745 mmHg 72%
    06:00 +9°C° 0 mm 6 m/S 745 mmHg 71%
    07:00 +10°C° 0 mm 6 m/S 745 mmHg 68%
    08:00 +11°C° 0 mm 7 m/S 746 mmHg 66%
    09:00 +12°C° 0 mm 7 m/S 746 mmHg 63%
    10:00 +14°C° 0 mm 7 m/S 746 mmHg 60%
    11:00 +15°C° 0 mm 7 m/S 747 mmHg 57%
    12:00 +16°C° 0 mm 7 m/S 747 mmHg 55%
    13:00 +16°C° 0 mm 6 m/S 747 mmHg 58%
    14:00 +15°C° 0 mm 5 m/S 747 mmHg 61%
    15:00 +15°C° 0 mm 4 m/S 747 mmHg 64%
    16:00 +14°C° 0 mm 4 m/S 747 mmHg 67%
    17:00 +13°C° 0 mm 3 m/S 748 mmHg 70%
    18:00 +12°C° 0 mm 3 m/S 748 mmHg 73%
    19:00 +12°C° 0 mm 4 m/S 748 mmHg 73%
    20:00 +12°C° 0 mm 4 m/S 749 mmHg 74%
    21:00 +11°C° 0 mm 4 m/S 749 mmHg 74%
    22:00 +11°C° 0 mm 4 m/S 749 mmHg 74%
    23:00 +10°C° 0 mm 5 m/S 749 mmHg 73%

    24 November, Freitag

    Zeit Temperatur Niederschläge Wind Luftdruck Luftfeuchtigkeit
    00:00 +10°C° 0 mm 5 m/S 748 mmHg 73%
    01:00 +10°C° 0 mm 5 m/S 748 mmHg 72%
    02:00 +12°C° 0 mm 5 m/S 748 mmHg 70%
    03:00 +12°C° 0 mm 5 m/S 748 mmHg 69%
    04:00 +12°C° 0 mm 5 m/S 748 mmHg 68%
    05:00 +12°C° 0 mm 5 m/S 747 mmHg 67%
    06:00 +11°C° 0 mm 6 m/S 747 mmHg 66%
    07:00 +11°C° 0 mm 6 m/S 747 mmHg 65%
    08:00 +13°C° 0 mm 6 m/S 747 mmHg 63%
    09:00 +12°C° 0 mm 7 m/S 747 mmHg 62%
    10:00 +14°C° 0 mm 7 m/S 746 mmHg 59%
    11:00 +15°C° 0 mm 7 m/S 746 mmHg 57%
    12:00 +16°C° 0 mm 8 m/S 746 mmHg 54%
    13:00 +16°C° 0 mm 7 m/S 745 mmHg 56%
    14:00 +16°C° 0 mm 6 m/S 745 mmHg 58%
    15:00 +16°C° 0 mm 5 m/S 745 mmHg 60%
    16:00 +16°C° 0 mm 5 m/S 745 mmHg 62%
    17:00 +15°C° 0 mm 5 m/S 745 mmHg 64%
    18:00 +14°C° 0 mm 5 m/S 745 mmHg 65%
    19:00 +14°C° 0 mm 6 m/S 744 mmHg 64%
    20:00 +13°C° 0 mm 6 m/S 744 mmHg 63%
    21:00 +12°C° 0 mm 7 m/S 744 mmHg 62%
    22:00 +14°C° 0 mm 7 m/S 743 mmHg 60%
    23:00 +14°C° 0 mm 7 m/S 743 mmHg 58%
    Mehr zeigen